Regional Weather Roundup
Issued by NWS

Home | Current Version | Previous Version | Graphics & Text | Print | Product List | Glossary On
Versions: 1 2 3 4 5 6 7 8 9 10 11 12 13 14 15 16 17 18 19 20 21 22 23 24 25 26 27 28 29 30 31 32 33 34 35 36 37 38 39 40 41 42 43 44 45 46 47 48 49 50
000
ASUS43 KOAX 181810
RWRNE

WEATHER ROUNDUP FOR NEBRASKA
NATIONAL WEATHER SERVICE OMAHA NE
1200 PM CST SAT NOV 18 2017

NOTES: SATELLITE DATA IS BEING USED TO AUGMENT CLOUD COVER ABOVE
       12000 FEET.
       "FAIR" INDICATES FEW OR NO CLOUDS BELOW 12,000 FEET WITH NO
       SIGNIFICANT WEATHER AND/OR OBSTRUCTIONS TO VISIBILITY.


NEZ001>004-019>022-054>056-181900-
NEBRASKA PANHANDLE

CITY           SKY/WX    TMP DP  RH WIND       PRES   REMARKS
SCOTTSBLUFF    SUNNY     42  16  34 W18G26    30.25R
6HR MIN TEMP:  25; 6HR MAX TEMP:  42;

ALLIANCE       SUNNY     41  17  38 NW17      30.20R
6HR MIN TEMP:  22; 6HR MAX TEMP:  41;

CHADRON        SUNNY     42  19  39 NW17G25   30.22S
6HR MIN TEMP:  26; 6HR MAX TEMP:  42;

GORDON         FAIR      41  22  46 NW15G24   30.17S
6HR MIN TEMP:  27; 6HR MAX TEMP:  41;

KIMBALL        SUNNY     38  16  40 NW28G36   30.23S WCI  26
SIDNEY         SUNNY     40  18  41 NW24G35   30.23S WCI  29
6HR MIN TEMP:  25; 6HR MAX TEMP:  40;

$$

NEZ057>060-069>072-079>082-181900-
SOUTHWEST NEBRASKA

CITY           SKY/WX    TMP DP  RH WIND       PRES   REMARKS
NORTH PLATTE   SUNNY     47  25  42 NW22G31   30.18R
6HR MIN TEMP:  34; 6HR MAX TEMP:  47;

IMPERIAL       SUNNY     45  20  36 NW21G33   30.22S
6HR MIN TEMP:  33; 6HR MAX TEMP:  45;

LEXINGTON      SUNNY     47  29  51 N20G31    30.15S
MCCOOK         SUNNY     47  29  49 NW21      30.20R
6HR MIN TEMP:  35; 6HR MAX TEMP:  47;

OGALLALA       SUNNY     45  21  39 NW22G33   30.21F
$$

NEZ005>010-023>029-035>040-094-181900-
NORTH CENTRAL NEBRASKA

CITY           SKY/WX    TMP DP  RH WIND       PRES   REMARKS
VALENTINE      SUNNY     43  24  47 NW23G36   30.13S
6HR MIN TEMP:  34; 6HR MAX TEMP:  43;

AINSWORTH      MOSUNNY   41  28  60 NW25G37   30.12S
BROKEN BOW     SUNNY     45  29  53 NW23G32   30.13R
6HR MIN TEMP:  36; 6HR MAX TEMP:  45;

O`NEILL        PTSUNNY   41  30  65 NW23G32   30.10R
ORD            SUNNY     45  29  53 N28G36    30.10R
6HR MIN TEMP:  37; 6HR MAX TEMP:  46;

THEDFORD       SUNNY     43  26  50 NW23G30   30.15S
$$

NEZ041-046>049-061>064-073>077-083>087-181900-
SOUTH CENTRAL NEBRASKA

CITY           SKY/WX    TMP DP  RH WIND       PRES   REMARKS
GRAND ISLAND   SUNNY     47  32  56 NW26G39   30.09R
6HR MIN TEMP:  39; 6HR MAX TEMP:  47;

AURORA         SUNNY     46  32  58 NW26G35   30.08R
HASTINGS       SUNNY     47  31  53 NW22G36   30.10R
6HR MIN TEMP:  38; 6HR MAX TEMP:  47;

HEBRON         MOSUNNY   51  34  53 NW23G30   30.06R
HOLDREGE       SUNNY     46  32  57 NW21G32   30.14R
KEARNEY        SUNNY     46  30  53 N24G32    30.12R
YORK           SUNNY     46  34  61 N20G29    30.05R
$$

NEZ011>018-030>034-042>045-181900-
NORTHEAST NEBRASKA

CITY           SKY/WX    TMP DP  RH WIND       PRES   REMARKS
NORFOLK        SUNNY     44  30  57 NW30G39   30.00R
6HR MIN TEMP:  35; 6HR MAX TEMP:  45;

ALBION         SUNNY     46  31  58 NW31G37   30.06R
BLAIR          MOSUNNY   44  35  69 NW14G29   29.97R
COLUMBUS       SUNNY     47  32  56 NW28G37   30.02S
FREMONT        SUNNY     47  32  56 NW24G33   30.00R
TEKAMAH        SUNNY     46  33  60 NW21G29   29.98R
6HR MIN TEMP:  36; 6HR MAX TEMP:  46;

WAYNE          PTSUNNY   44  29  57 NW25G33   30.01R
$$

NEZ050>053-065>068-078-088>093-181900-
SOUTHEAST NEBRASKA

CITY           SKY/WX    TMP DP  RH WIND       PRES   REMARKS
LINCOLN        MOSUNNY   50  35  56 N24G33    30.02R
6HR MIN TEMP:  39; 6HR MAX TEMP:  50;

OMAHA EPPLEY   MOSUNNY   45  32  60 N23G35    29.97R
6HR MIN TEMP:  37; 6HR MAX TEMP:  46;

BEATRICE       PTSUNNY   49  38  64 N29G36    30.03R
FALLS CITY     CLOUDY    45  29  53 NW23G32   29.96R
6HR MIN TEMP:  40; 6HR MAX TEMP:  46; 6HR PCP:  0.03;

NEBRASKA CITY  PTSUNNY   46  37  69 N24G32    29.97R
PLATTSMOUTH    PTSUNNY   45  36  71 NW26G32   29.96R
$$

NEZ044-045-051>053-067-181900-
OMAHA AREA

CITY           SKY/WX    TMP DP  RH WIND       PRES   REMARKS
OMAHA EPPLEY   MOSUNNY   45  32  60 N23G35    29.97R
6HR MIN TEMP:  37; 6HR MAX TEMP:  46;

BLAIR          MOSUNNY   44  35  69 NW14G29   29.97R
FREMONT        SUNNY     47  32  56 NW24G33   30.00R
MILLARD        MOSUNNY   46  35  64 NW16G25   29.99R
OFFUTT AFB     MOSUNNY   46  33  61 NW16G28   29.97R
PLATTSMOUTH    PTSUNNY   45  36  71 NW26G32   29.96R
WAHOO          FAIR      48  35  60 N25G33    29.99R
$$



USA.gov is the U.S. government's official web portal to all federal, state and local government web resources and services.